Starlink 31218

operational
NORAD ID: 58895 Int'l Des: 2024-020 Owner: SPXS Country: US Constellation: starlink
LEOCIRCULAR

About Starlink 31218

Description loading...

Live Position

Loading 3D Globe...

Upcoming Passes

Altitude History

Altitude vs Time

uPlot chart will show altitude changes over time

Two-Line Element Set

1 58895U 24020V 25303.93950170 .00000881 00000-0 41882-4 0 9994
2 58895 53.1606 205.2515 0001313 76.3493 283.7654 15.30183175 98206
Epoch: Oct 30, 2025 • Age: 23 hours

Current Status

Altitude 488.2 km
Velocity 7.62 km/s
Sub-Earth Point -38.01°S, 157.04°E
Launch Date Jan 29, 2024
Age 1.7 years
Type internet

Technical Details

Classification Payload
Mass 730.00 kg
Dry Mass 700.00 kg
Total Mass 730.00 kg
Length 0.30 m
Diameter 4.10 m
Span 29.00 m
Shape Box + pan
Manufacturer SPXS
Bus Type Starlink V2M
Phase Status In Orbit
Owner/State SPXS/US

Large Constellations

Loading constellations...